Weather History for Washington, MO

Change the Weather History Date:

Monday, November 26, 2012

  Actual Average (KSTL) Record (KSTL)
Temperature  
Mean Temperature 34 °F 42 °F  
Max Temperature 42 °F 50 °F 76 °F (1965)
Min Temperature 26 °F 34 °F 7 °F (1977)
Degree Days  
Heating Degree Days 31 23  
Month to date heating degree days 451  
Since 1 July heating degree days 727  
Cooling Degree Days 0 0  
Month to date cooling degree days 0  
Year to date cooling degree days 1642  
Moisture  
Dew Point 26 °F    
Average Humidity 66    
Maximum Humidity 81    
Minimum Humidity 53    
Precipitation  
Precipitation 0.00 in 0.13 in 2.32 in (1887)
Month to date precipitation 3.39  
Year to date precipitation 37.60  
Snow  
Snow - 0.00 in 7.60 in (1975)
Month to date snowfall 0.5  
Since 1 July snowfall 0.5  
Since 1 September snowfall 0.5  
Snow Depth -    
Sea Level Pressure  
Sea Level Pressure 30.21 in    
Wind  
Wind Speed 3 mph ()    
Max Wind Speed 15 mph    
Max Gust Speed 20 mph    
Visibility 10.0 miles    
Events      
T = Trace of Precipitation, MM = Missing Value Source: Averaged Metar Reports

Daily Weather History Graph

Daily Weather History Graph

Search for Another Location

Airport:

Trip Planner

Search our weather history database for the weather conditions in past years. The results will help you decide how hot, cold, wet, or windy it might be!

Date:

Astronomy

Nov. 26, 2012 Rise Set
Actual Time 6:58 AM CST 4:44 PM CST
Civil Twilight 6:29 AM CST 5:13 PM CST
Nautical Twilight 5:56 AM CST 5:46 PM CST
Astronomical Twilight 5:24 AM CST 6:18 PM CST
Moon 3:36 PM CST (11/26) 5:09 AM CST (11/26)
Length of Visible Light 10h 44m
Length of Day
9h 46m
Waxing Gibbous, 97% of the Moon is Illuminated
Nov 26
Waxing Gibbous
Nov 28
Full
Dec 6
Last Quarter
Dec 13
New
Dec 19
First Quarter

Hourly Weather History & Observations

Time (CST) Temp. Windchill Dew Point Humidity Pressure Visibility Wind Dir Wind Speed Gust Speed Precip Events Conditions
12:15 AM 39.2 °F - 28.4 °F 65% 30.05 in 10.0 mi Calm Calm - N/A   Partly Cloudy
12:35 AM 37.4 °F - 28.4 °F 70% 30.05 in 10.0 mi Calm Calm - N/A   Clear
12:55 AM 33.8 °F - 28.4 °F 81% 30.05 in 10.0 mi Calm Calm - N/A   Clear
1:15 AM 35.6 °F - 28.4 °F 75% 30.05 in 10.0 mi Calm Calm - N/A   Clear
1:35 AM 35.6 °F - 28.4 °F 75% 30.05 in 10.0 mi Calm Calm - N/A   Clear
1:55 AM 35.6 °F - 26.6 °F 70% 30.06 in 10.0 mi Calm Calm - N/A   Clear
2:15 AM 35.6 °F - 26.6 °F 70% 30.06 in 10.0 mi Calm Calm - N/A   Clear
2:35 AM 37.4 °F - 28.4 °F 70% 30.07 in 10.0 mi Calm Calm - N/A   Partly Cloudy
2:55 AM 37.4 °F - 26.6 °F 65% 30.08 in 10.0 mi Calm Calm - N/A   Clear
3:15 AM 37.4 °F 33.8 °F 28.4 °F 70% 30.07 in 10.0 mi North 4.6 mph - N/A   Partly Cloudy
3:35 AM 37.4 °F - 28.4 °F 70% 30.07 in 10.0 mi Calm Calm - N/A   Scattered Clouds
3:55 AM 35.6 °F - 28.4 °F 75% 30.08 in 10.0 mi Calm Calm - N/A   Scattered Clouds
4:15 AM 35.6 °F 31.7 °F 28.4 °F 75% 30.08 in 10.0 mi NNE 4.6 mph - N/A   Mostly Cloudy
4:35 AM 35.6 °F - 26.6 °F 70% 30.08 in 10.0 mi Calm Calm - N/A   Mostly Cloudy
4:55 AM 35.6 °F - 26.6 °F 70% 30.09 in 10.0 mi Calm Calm - N/A   Mostly Cloudy
5:15 AM 35.6 °F - 26.6 °F 70% 30.09 in 10.0 mi Calm Calm - N/A   Mostly Cloudy
5:35 AM 35.6 °F - 26.6 °F 70% 30.10 in 10.0 mi Calm Calm - N/A   Overcast
5:55 AM 35.6 °F - 26.6 °F 70% 30.11 in 10.0 mi Calm Calm - N/A   Mostly Cloudy
6:15 AM 35.6 °F - 26.6 °F 70% 30.12 in 10.0 mi Calm Calm - N/A   Scattered Clouds
6:35 AM 33.8 °F - 26.6 °F 75% 30.14 in 10.0 mi Calm Calm - N/A   Overcast
6:55 AM 35.6 °F - 26.6 °F 70% 30.15 in 10.0 mi Calm Calm - N/A   Overcast
7:15 AM 35.6 °F 32.8 °F 26.6 °F 70% 30.15 in 10.0 mi North 3.5 mph - N/A   Overcast
7:35 AM 35.6 °F 31.7 °F 26.6 °F 70% 30.16 in 10.0 mi NNE 4.6 mph - N/A   Overcast
7:55 AM 35.6 °F 30.7 °F 26.6 °F 70% 30.16 in 10.0 mi NE 5.8 mph - N/A   Overcast
8:15 AM 37.4 °F 33.8 °F 26.6 °F 65% 30.17 in 10.0 mi NE 4.6 mph - N/A   Overcast
8:35 AM 37.4 °F 32.1 °F 26.6 °F 65% 30.18 in 10.0 mi NNE 6.9 mph - N/A   Overcast
8:55 AM 37.4 °F 32.8 °F 26.6 °F 65% 30.17 in 10.0 mi NNE 5.8 mph - N/A   Overcast
9:15 AM 37.4 °F 32.1 °F 26.6 °F 65% 30.18 in 10.0 mi NNE 6.9 mph - N/A   Overcast
9:35 AM 37.4 °F - 26.6 °F 65% 30.19 in 10.0 mi Calm Calm - N/A   Overcast
9:55 AM 37.4 °F - 26.6 °F 65% 30.20 in 10.0 mi Calm Calm - N/A   Overcast
10:15 AM 39.2 °F 35.9 °F 26.6 °F 61% 30.21 in 10.0 mi NE 4.6 mph - N/A   Overcast
10:35 AM 39.2 °F 35.9 °F 26.6 °F 61% 30.21 in 10.0 mi NE 4.6 mph - N/A   Overcast
10:55 AM 39.2 °F 35.9 °F 26.6 °F 61% 30.21 in 10.0 mi North 4.6 mph - N/A   Overcast
11:15 AM 39.2 °F 37.0 °F 26.6 °F 61% 30.21 in 10.0 mi NE 3.5 mph - N/A   Overcast
11:35 AM 41.0 °F - 26.6 °F 57% 30.21 in 10.0 mi Calm Calm - N/A   Overcast
11:55 AM 41.0 °F 39.0 °F 26.6 °F 57% 30.21 in 10.0 mi NNE 3.5 mph - N/A   Overcast
12:15 PM 42.8 °F 36.6 °F 26.6 °F 53% 30.19 in 10.0 mi North 11.5 mph 17.3 mph N/A   Overcast
12:35 PM 42.8 °F 36.6 °F 26.6 °F 53% 30.20 in 10.0 mi North 11.5 mph 17.3 mph N/A   Overcast
1:15 PM 42.8 °F 36.2 °F 26.6 °F 53% 30.20 in 10.0 mi North 12.7 mph 18.4 mph N/A   Overcast
1:35 PM 41.0 °F 33.9 °F 26.6 °F 57% 30.21 in 10.0 mi North 12.7 mph 19.6 mph N/A   Overcast
1:55 PM 42.8 °F 36.6 °F 26.6 °F 53% 30.21 in 10.0 mi North 11.5 mph 16.1 mph N/A   Overcast
2:15 PM 41.0 °F 33.9 °F 24.8 °F 53% 30.21 in 10.0 mi North 12.7 mph 18.4 mph N/A   Overcast
2:35 PM 41.0 °F 35.2 °F 26.6 °F 57% 30.21 in 10.0 mi North 9.2 mph - N/A   Overcast
2:55 PM 42.8 °F 35.4 °F 26.6 °F 53% 30.22 in 10.0 mi North 15.0 mph 18.4 mph N/A   Overcast
3:15 PM 42.8 °F 37.0 °F 26.6 °F 53% 30.22 in 10.0 mi North 10.4 mph 16.1 mph N/A   Overcast
3:35 PM 41.0 °F 34.7 °F 26.6 °F 57% 30.24 in 10.0 mi North 10.4 mph - N/A   Overcast
3:55 PM 41.0 °F 35.8 °F 26.6 °F 57% 30.25 in 10.0 mi North 8.1 mph 16.1 mph N/A   Overcast
4:15 PM 41.0 °F 35.8 °F 24.8 °F 53% 30.25 in 10.0 mi North 8.1 mph - N/A   Overcast
4:35 PM 41.0 °F 34.7 °F 24.8 °F 53% 30.26 in 10.0 mi North 10.4 mph 16.1 mph N/A   Overcast
4:55 PM 41.0 °F 35.2 °F 24.8 °F 53% 30.27 in 10.0 mi North 9.2 mph - N/A   Overcast
5:15 PM 41.0 °F 34.3 °F 24.8 °F 53% 30.28 in 10.0 mi North 11.5 mph - N/A   Overcast
5:35 PM 39.2 °F 33.0 °F 24.8 °F 56% 30.29 in 10.0 mi North 9.2 mph - N/A   Overcast
5:55 PM 39.2 °F 31.2 °F 24.8 °F 56% 30.29 in 10.0 mi North 13.8 mph - N/A   Overcast
6:15 PM 37.4 °F 29.8 °F 24.8 °F 60% 30.31 in 10.0 mi North 11.5 mph - N/A   Overcast
6:35 PM 37.4 °F 29.8 °F 24.8 °F 60% 30.32 in 10.0 mi North 11.5 mph 16.1 mph N/A   Overcast
6:55 PM 37.4 °F 32.1 °F 26.6 °F 65% 30.33 in 10.0 mi North 6.9 mph - N/A   Overcast
7:15 PM 35.6 °F 27.5 °F 26.6 °F 70% 30.33 in 10.0 mi North 11.5 mph - N/A   Overcast
7:35 PM 35.6 °F 32.8 °F 26.6 °F 70% 30.34 in 10.0 mi North 3.5 mph - N/A   Overcast
7:55 PM 35.6 °F 28.6 °F 26.6 °F 70% 30.34 in 10.0 mi North 9.2 mph - N/A   Overcast
8:15 PM 33.8 °F 27.0 °F 24.8 °F 70% 30.35 in 10.0 mi North 8.1 mph - N/A   Overcast
8:35 PM 32.0 °F 25.6 °F 24.8 °F 75% 30.36 in 10.0 mi North 6.9 mph - N/A   Overcast
8:55 PM 32.0 °F 24.8 °F 24.8 °F 75% 30.36 in 10.0 mi North 8.1 mph - N/A   Partly Cloudy
9:15 PM 32.0 °F 24.8 °F 24.8 °F 75% 30.37 in 10.0 mi North 8.1 mph - N/A   Scattered Clouds
9:35 PM 32.0 °F - 24.8 °F 75% 30.38 in 10.0 mi Calm Calm - N/A   Mostly Cloudy
9:55 PM 32.0 °F 28.7 °F 23.0 °F 69% 30.38 in 10.0 mi NNW 3.5 mph - N/A   Mostly Cloudy
10:15 PM 30.2 °F - 23.0 °F 75% 30.39 in 10.0 mi Calm Calm - N/A   Partly Cloudy
10:35 PM 28.4 °F 22.2 °F 23.0 °F 80% 30.39 in 10.0 mi NNW 5.8 mph - N/A   Clear
10:55 PM 28.4 °F 21.2 °F 23.0 °F 80% 30.39 in 10.0 mi NNW 6.9 mph - N/A   Clear
11:15 PM 28.4 °F - 23.0 °F 80% 30.39 in 10.0 mi Calm Calm - N/A   Clear
11:35 PM 26.6 °F - 21.2 °F 80% 30.40 in 10.0 mi Calm Calm - N/A   Clear
11:55 PM 26.6 °F - 21.2 °F 80% 30.41 in 10.0 mi Calm Calm - N/A   Clear